www.pogodaiklimat.ru

Погода и климат >> Архив погоды >> Россия >> Карелия >> Реболы


АРХИВ ПОГОДЫ в Реболах

Время (UTC), дата Ветер
(напр.,м/с)
 
Видим.   Явления Облачность Т
(С)
Тd
(С)
f
(%)
Тe
(С)
Тes
(С)
Комфортность P
(гПа)
Po
(гПа)
Тmin
(С)
Tmax
(С)
R
(мм)
R24
(мм)
S
(см)
03 16.08 ЮЗ 3 21 км 9/9 400 м
[Cb cap]
+12.4 +10.2 86 +11 +11 1007.0 985.5 +11.5
06 16.08 З 3 9000 м слаб. ливневой дождь 10/10 330 м
[Cb cap]
+12.4 +9.9 85 +11 +11 1008.4 986.8 +11.5 0.0
09 16.08 З 3 23 км {ливн. осадки} 10/10 360 м
[Cb cap]
+14.4 +10.3 76 +14 +14 1009.4 988.0
12 16.08 З 3 25 км {ливн. осадки} 9/9 400 м
[Cb cap]
+16.1 +10.4 69 +16 +16 1010.8 989.5
15 16.08 ЮЗ 2 28 км в посл. час ливневой дождь 8/4 300 м
[Cb cap Ac trans]
+15.6 +11.3 76 +16 +16 1011.8 990.4 0.0
18 16.08 ЮЗ 1 27 км {ливн. осадки} 9/9 450 м
[Cb cap]
+14.0 +11.2 83 +14 +14 1012.9 991.4 +16.6 0.0
21 16.08 ЮЗ 1 23 км 10/10 360 м
[Cb cap]
+13.3 +9.4 77 +14 +14 1014.0 992.4
00 17.08 штиль 0 25 км 4/0
[Ac trans]
+9.3 +7.3 87 +9 +9 1015.2 993.2
03 17.08 ЮВ 1 50 км ясно +7.7 +6.8 94 +7 +7 1015.9 993.8 +6.8 0.0
06 17.08 Ю 1 50 км 8/4 300 м
[Cb cap Ac trans]
+14.5 +10.0 74 +15 +17 1016.3 994.7 +6.8
09 17.08 Ю 3 50 км 6/3 600 м
[Cu hum Ac trans]
+18.8 +11.1 61 +20 +23 1016.0 994.7
12 17.08 ЮЗ 3 50 км 3/0
[Ac trans]
+20.6 +9.2 48 +22 +27 комфорт 1015.7 994.6
15 17.08 Ю 3 50 км 4/0
[Ac trans]
+20.7 +9.1 47 +23 +24 комфорт 1015.1 994.0
18 17.08 Ю 2 27 км 3/0
[Ac trans]
+17.3 +10.3 63 +18 +18 1015.7 994.3 +21.5
21 17.08 Ю 1 23 км 4/0
[Ac trans]
+14.9 +9.9 72 +15 +15 1016.2 994.7
00 18.08 Ю 2 25 км ясно +12.4 +7.2 71 +12 +12 1016.9 995.1
03 18.08 Ю 1 25 км 6/3 300 м
[Sc Ac trans]
+12.8 +7.5 70 +13 +13 1016.9 995.2 +12.1
06 18.08 Ю 2 50 км 4/0
[Ac trans]
+17.0 +8.5 57 +17 +20 1016.7 995.3 +12.1
09 18.08 Ю 3 50 км 1/0
[Ci fib]
+20.5 +6.9 41 +22 +29 комфорт 1016.2 995.0
12 18.08 Ю 4 50 км 3/0
[Ac trans]
+21.4 +6.2 37 +22 +26 комфорт 1015.2 994.1
15 18.08 ЮВ 4 50 км 3/0
[Ac trans Ci fib]
+20.4 +6.4 40 +21 +22 комфорт 1014.2 993.1
18 18.08 ЮВ 2 27 км 8/4 300 м
[Sc Ac trans]
+17.5 +7.5 52 +18 +18 1014.3 993.0 +21.8
21 18.08 ЮВ 2 24 км 3/0
[Ac trans]
+14.4 +9.3 71 +14 +14 1013.9 992.4
00 19.08 ЮВ 1 25 км 1/0
[Ac trans]
+12.0 +8.4 79 +12 +12 1013.8 992.1
03 19.08 ЮВ 1 27 км 3/0
[Ci fib]
+12.1 +9.0 81 +12 +12 1012.9 991.2 +9.2
06 19.08 ЮВ 2 50 км 8/3 300 м
[Cu hum Ac trans]
+15.6 +10.2 70 +16 +17 1011.7 990.3 +9.2
09 19.08 ЮВ 3 50 км 8/4 300 м
[Cu hum Ac trans]
+19.3 +11.1 59 +21 +23 комфорт 1009.8 988.7
12 19.08 ЮВ 3 24 км 8/6 400 м
[Cb cap Ac trans]
+17.7 +12.3 71 +18 +19 1009.8 988.6
15 19.08 Ю 3 9000 м слаб. ливневой дождь 9/9 480 м
[Cb cap]
+16.4 +13.4 82 +16 +16 1009.4 988.1 0.3
18 19.08 Ю 3 7000 м слаб. морось 10/10 360 м
[St]
+15.1 +13.6 91 +14 +14 1009.7 988.3 +19.5 0.8
21 19.08 ЮЗ 2 8000 м слаб. морось 10/10 210 м
[St]
+15.1 +13.8 92 +15 +15 1009.8 988.4
00 20.08 ЮЗ 2 23 км {морось} 6/4 300 м
[Cb cap Ac trans]
+15.1 +13.8 92 +15 +15 1010.5 989.1
03 20.08 ЮЗ 2 22 км 8/6 400 м
[Cb cap Ac trans]
+14.5 +13.3 93 +14 +14 1011.9 990.4 +14.0 0.9
06 20.08 ЮЗ 3 50 км 4/3 600 м
[Cu hum Ac trans]
+16.0 +12.0 77 +16 +17 1013.0 991.6 +14.0 0.4
09 20.08 ЮЗ 4 50 км 8/4 300 м
[Cb cap Ac trans]
+19.7 +10.0 53 +21 +23 комфорт 1013.8 992.7
12 20.08 ЮЗ 4 50 км 8/3 300 м
[Cb cap Ac trans]
+20.2 +9.9 52 +22 +24 комфорт 1014.4 993.2
15 20.08 ЮЗ 4 50 км 6/4 300 м
[Cb cap Ac trans]
+20.1 +9.7 51 +21 +22 комфорт 1015.2 994.1
18 20.08 Ю 1 25 км 9/8 450 м
[Cb cap Ac trans]
+16.6 +10.4 67 +17 +17 1016.3 994.9 +21.2
21 20.08 ЮЗ 2 26 км ясно +13.4 +9.6 78 +13 +13 1017.6 995.9
00 21.08 ЮЗ 3 25 км 3/0
[Ac trans]
+12.6 +10.4 86 +11 +11 1018.2 996.5
03 21.08 ЮЗ 2 24 км 10/10 400 м
[Cb cap]
+11.9 +10.8 93 +11 +11 1019.0 997.2 +11.1
06 21.08 ЮЗ 2 50 км 3/0
[Ac trans]
+15.4 +11.3 77 +15 +18 1019.5 997.9 +11.1
09 21.08 ЮЗ 3 50 км 3/3 600 м
[Cu hum Ci sp]
+19.0 +10.7 59 +20 +25 1019.3 998.0
12 21.08 ЮЗ 4 50 км 6/4 600 м
[Cu hum Ac trans]
+19.7 +9.4 51 +21 +23 комфорт 1018.8 997.5
15 21.08 ЮЗ 4 50 км {ливн. осадки} 4/3 300 м
[Cb cap Ci fib]
+18.9 +10.1 57 +20 +20 1018.6 997.3
18 21.08 Ю 1 26 км {ливн. осадки} 3/0
[Ac trans]
+15.0 +10.5 74 +16 +16 1018.8 997.2 +20.9 0.0
21 21.08 ЮЗ 2 22 км {ливн. осадки} 8/6 420 м
[Cb cap Ac trans]
+12.9 +10.7 86 +12 +12 1018.2 996.5
00 22.08 штиль 0 н/о н/о +11.5 +10.1 91 +11 +11 1017.6 995.8
03 22.08 Ю 1 8000 м слаб. ливневой дождь 10/10 330 м
[Cb cap]
+12.1 +10.7 91 +12 +12 1017.1 995.3 +11.4 0.9
06 22.08 З 1 25 км {ливн. осадки} 10/10 400 м
[Cb cap]
+13.2 +11.4 89 +13 +13 1016.4 994.7 +11.4 1
09 22.08 З 1 50 км {ливн. осадки} 8/5 300 м
[Cb cap Ac trans Ci fib]
+15.3 +10.9 75 +16 +19 1016.4 994.9
12 22.08 З 3 26 км гроза, ливневой дождь 9/8 400 м
[Cb cap Ac trans]
+15.1 +10.3 73 +14 +15 1016.6 995.1
15 22.08 З 3 50 км {гроза, ливн. осадки} 3/0
[Ac trans]
+16.7 +9.1 61 +17 +18 1016.9 995.5 0.3
18 22.08 З 2 26 км {гроза, ливн. осадки} 3/1 300 м
[Cb cap Ac trans]
+13.5 +10.0 79 +13 +13 1018.0 996.3 +16.8 0.0
21 22.08 З 2 25 км ясно +11.1 +8.1 82 +10 +10 1019.5 997.6
00 23.08 З 2 24 км ясно +8.9 +6.7 86 +7 +7 1020.4 998.3

 

Местоположение метеостанции Реболы (Карелия, Россия): широта 63.83 долгота 30.82 высота над уровнем моря 182 м.

В архиве по умолчанию представлена погода в Реболах за последнюю неделю. Архивные данные за месяц целиком и за предыдущие месяцы, начиная с января 2011 года, Вы можете получить, выбрав интересующий диапазон дат из раскрывающегося списка и нажав кнопку "Ввод!".


*Определитесь, кто Вы:
робот инопланетянин человек

Внимание! Время в таблицах - всемирное. Для получения местного времени необходимо прибавить поправку, которая равна 3 ч.

Смотрите также архив погоды в соседних городах и на ближайших метеорологических станциях:

Погода в Кухмо Каллиёки (Финляндия) (61 км)
Погода в Лиексе (Финляндия) (68 км)
Погода в Иломанци Поцонваара (Финляндия) (78 км)
Погода в Валтимо (Финляндия) (99 км)
Погода в Юуке (Финляндия) (103 км)
Погода в Раутаваара Яла-Луоста (Финляндия) (118 км)
Погода в Мекриярви (Финляндия) (118 км)
Погода в Юшкозере (Карелия, Россия) (120 км)
Погода в Соткамо Куоланиеми (Финляндия) (125 км)
Погода в Паданах (Карелия, Россия) (143 км)

Пояснения к столбцам:

Ветер - указаны скорость ветра в м/с - средняя за 10 мин, порывы в срок и между сроками (в фигурных скобках) и направление, откуда дует ветер: С - северный, СВ - северо-восточный, В - восточный, ЮВ - юго-восточный, Ю - южный, ЮЗ - юго-западный, З - западный, СЗ - северо-западный.
Видимость - горизонтальная дальность видимости в метрах или километрах. При видимости от 1 до 10 км при отсутствии осадков обычно наблюдается дымка, при ухудшении видимости до 1 км и менее - туман. В сухую погоду видимость может ухудшаться дымом, пылью или мглою.
Явления - указаны атмосферные явления, наблюдавшиеся в срок или в последний час перед сроком; фигурными скобками обозначены явления, наблюдавшиеся между сроками (за 1-3 часа до срока); квадратными скобками обозначены град или гололедные отложения с указанием их диаметра в мм.
Облачность - указаны через наклонную черту общая и нижняя облачность в баллах и высота нижней границы облаков в метрах; квадратными скобками обозначены формы облаков: Ci - перистые, Cs - перисто-слоистые, Cc - перисто-кучевые, Ac - высококучевые, As - высокослоистые, Sc - слоисто-кучевые, Ns - слоисто-дождевые, Cu - кучевые, Cb - кучево-дождевые. Подробнее классификацию облаков см. в Атласе облаков (PDF).
T - Температура воздуха - температура, измеренная на высоте 2 м над землей.
Td - Температура точки росы - температура, при понижении до которой содержащийся в воздухе водяной пар достигнет насыщения.
f - Относительная влажность воздуха - влажноcть воздуха, измеренная на высоте 2 м над землей.
Te - Эффективная температура - температура, которую ощущает одетый по сезону человек в тени. Характеристика душности погоды. При расчете учитывается влияние влажности воздуха и скорости ветра на теплоощущения человека.
Tes - Эффективная температура на солнце - температура, которую ощущает человек, с поправкой на солнечный нагрев. Характеристика знойности погоды. Зависит от высоты солнца над горизонтом, облачности и скорости ветра. Ночью, в пасмурную погоду, а также при ветре 12 м/с и более поправка равна нулю.
P - Атмосферное давление - приведенное к уровню моря атмосферное давление.
Po - Атмосферное давление - измеренное на уровне метеостанции атмосферное давление.
Tmin - Минимальная температура - минимум температуры воздуха на высоте 2 м над землей.
Tmax - Максимальная температура - максимум температуры воздуха на высоте 2 м над землей.
R - Количество осадков - Количество выпавших осадков за период времени, мм. При наведении курсора мыши на число - период времени, за который выпало указанное количество осадков.
R24 - Количество осадков - Количество выпавших осадков за 24 часа, мм.
S - Снежный покров - Высота снежного покрова, см. При наведении курсора мыши на число - состояние снежного покрова и степень покрытия местности в баллах.